SCP
0 0 0 0 0 0 0 0 0 0 0 0 0 0 0 0 0 0 0 0 0 0 0 0 0 0 0 0 0 0 0 0 0 0 0 0 0 0 0 0 -0 -0 -0 -0 -0 0 0 0 0
0 0 0 0 0 0 0 0 0 0 0 0 0 0 0 0 0 0 0 0 0 0 0 0 0 0 0 0 0 0 0 0 0 0 0 0 0 0 0 0 0 0 -0 -0 -0 0 0 0 0
0 0 0 0 0 0 0 0 0 0 0 0 0 0 0 0 0 0 0 0 0 0 0 0 0 0 0 0 0 0 0 0 0 0 0 0 0 0 0 0 0 0 0 0 0 0 0 0 0
0 0 0 0 0 0 0 0 -0 -0 -0 0 0 0 0 0 0 0 0 0 0 0 0 0 0 0 0 0 0 0 0 0 0 0 0 0 0 0 0 0 0 0 0 0 0 0 0 0 0
0 0 0 0 0 0 0 -0 -0 -0 -0 -0 -0 0 0 0 0 0 0 0 0 0 0 0 0 0 0 0 0 0 0 0 0 0 0 0 0 0 0 0 0 0 0 0 0 0 0 0 0
0 0 0 0 0 0 0 -0 -0 -0 -0 -0 -0 0 0 0 0 0 0 0 0 0 0 0 0 0 0 0 0 0 0 0 0 0 0 0 0 0 0 0 0 0 0 0 0 0 0 0 0
0 0 0 0 0 0 0 0 0 -0 -0 -0 -0 0 0 0 0 0 0 0 0 0 0 0 0 0 0 0 0 0 0 0 0 0 0 0 0 0 0 0 0 0 0 0 0 0 0 0 0
0 0 0 0 0 0 0 0 0 0 0 0 0 0 0 0 0 0 0 0 0 0 0 0 0 0 0 0 0 0 0 0 0 0 0 0 0 0 0 0 0 0 0 0 0 0 0 0 0
0 0 0 0 0 0 0 0 0 0 0 0 0 0 0 0 0 0 0 0 0 0 0 0 0 0 0 0 0 0 0 0 0 0 0 0 0 0 0 0 0 0 0 0 0 0 0 0 0
0 0 0 0 0 0 0 0 0 0 0 0 0 0 0 1 1 1 1 0 0 0 0 0 0 0 0 0 0 0 0 0 0 0 0 0 0 0 0 0 0 0 0 0 0 0 0 0 0
0 0 0 0 0 0 0 0 0 0 0 0 0 0 0 1 1 1 1 1 0 0 0 0 0 0 0 0 0 0 0 0 0 0 0 0 0 0 0 0 0 0 0 0 0 0 0 0 0
0 0 0 0 0 0 0 0 0 0 0 0 0 0 0 1 1 1 1 1 1 0 0 0 0 0 0 0 0 0 0 0 0 0 0 0 0 0 0 0 0 0 0 0 0 0 0 0 0
0 0 0 0 0 0 0 0 0 0 0 0 0 0 1 1 1 1 1 1 1 1 1 0 0 0 0 0 0 0 0 0 0 0 0 0 0 0 0 0 0 0 0 0 0 0 0 0 0
0 0 0 0 0 0 0 0 0 0 0 0 0 0 1 1 1 1 1 1 1 1 1 1 1 1 0 0 0 0 0 0 0 1 1 1 1 1 1 0 0 0 0 0 0 0 0 0 0
0 0 0 0 0 0 0 0 0 0 0 0 0 0 1 1 1 1 1 1 1 1 1 1 1 1 1 1 1 1 1 1 1 1 1 1 1 1 1 1 1 1 1 0 0 0 0 0 0
0 0 0 0 0 0 0 0 0 0 0 0 0 1 1 2 1 1 1 1 1 1 1 1 1 1 1 1 1 1 1 1 1 1 1 1 1 1 1 1 1 1 1 1 1 0 0 0 0
0 0 0 0 0 0 0 0 0 0 1 1 1 1 2 2 2 1 1 1 1 1 2 2 2 2 2 2 2 2 1 1 1 1 2 2 2 2 2 2 1 1 1 1 1 1 1 1 1
0 0 0 0 0 0 0 0 0 1 1 1 2 2 2 2 2 1 1 1 1 1 2 2 2 2 2 2 2 2 2 2 2 2 2 2 3 3 3 2 2 2 1 1 1 1 1 1 1
0 0 0 0 0 0 0 0 0 1 1 2 2 2 2 2 1 1 1 1 1 1 1 2 2 2 3 3 3 3 3 3 3 3 3 3 3 3 3 3 2 2 2 2 1 1 1 1 1
0 0 0 0 0 0 0 0 0 1 1 2 2 2 2 2 1 1 1 1 1 1 1 2 2 2 3 3 3 4 4 4 4 4 4 4 3 3 3 3 3 2 2 2 1 1 1 1 1
0 0 0 0 0 0 0 0 0 0 1 1 1 1 1 1 1 1 1 1 1 1 1 2 2 2 2 3 3 3 4 4 4 5 4 4 3 3 3 2 2 2 2 1 1 1 1 1 1
0 0 0 0 0 0 0 0 0 0 0 0 1 1 1 0 0 0 1 1 1 1 1 2 2 2 2 2 3 3 3 4 4 4 4 3 3 2 2 2 1 1 1 1 1 1 0 0 0
0 0 0 0 0 0 0 0 0 0 0 0 0 0 0 0 0 0 0 0 1 1 1 1 2 2 2 3 3 3 3 3 3 3 2 2 2 1 1 1 1 1 1 1 0 0 0 0 0
0 0 0 0 0 0 0 0 0 0 0 0 0 0 0 0 0 0 0 0 0 0 1 1 1 2 2 2 2 3 3 3 2 2 1 1 1 1 0 0 0 0 0 0 0 0 0 0 0
0 0 0 0 0 0 0 0 0 0 0 0 0 0 0 0 0 0 0 0 0 0 0 0 1 1 1 2 2 2 2 2 2 2 1 1 1 0 0 0 0 0 0 0 0 0 0 0 0
0 0 0 0 0 0 0 0 0 0 0 0 0 0 -0 -0 -0 0 0 0 0 0 0 0 0 1 1 1 1 1 1 2 2 1 1 1 1 0 0 0 0 0 0 0 0 0 0 0 0
0 0 0 0 0 0 0 0 0 0 0 0 0 0 -0 -0 -0 0 0 0 0 0 0 0 0 1 1 1 1 1 1 1 1 1 1 1 1 0 0 0 0 0 0 0 0 0 0 0 0
0 0 0 0 0 0 0 0 0 0 0 0 0 -0 -0 -0 -0 -0 0 0 0 0 0 0 0 1 1 1 1 1 1 1 1 1 1 0 0 0 0 0 0 0 0 0 0 0 0 0 0
0 0 0 0 0 0 0 0 0 0 0 0 0 -0 -0 -0 -0 0 0 0 0 0 0 0 0 0 0 0 1 0 0 0 0 0 0 0 0 0 0 0 0 0 0 0 0 0 0 0 0
0 0 0 0 0 0 0 0 0 0 0 0 0 0 0 0 0 0 0 0 0 0 0 0 0 0 0 0 0 0 0 0 0 0 0 0 0 0 0 0 0 0 0 0 0 0 0 0 0
Wind_Speed
10 8 6 6 9 5 6 4 3 3 3 2 5 2 2 2 3 5 6 16 17 18 19 19 17 16 15 14 15 15 15 15 14 14 13 12 11 10 9 8 7 6 6 6 6 6 7 7 7
5 5 7 8 8 2 6 3 1 3 4 3 4 3 2 0 4 6 10 16 18 18 18 18 18 16 15 15 15 15 14 14 13 13 12 12 11 10 10 9 8 6 6 5 4 4 5 5 5
5 8 7 7 3 6 6 3 3 5 4 2 2 2 3 4 4 6 11 18 17 16 16 17 19 17 16 15 14 14 14 13 12 11 11 11 11 10 9 8 7 6 6 5 4 3 3 3 3
5 7 7 6 4 7 4 2 4 5 3 1 2 1 2 5 2 8 16 18 17 16 15 18 19 17 16 15 14 13 13 12 11 11 10 10 9 9 9 8 7 6 5 5 5 4 3 3 2
6 6 7 3 4 5 3 1 5 3 1 1 2 1 3 5 6 13 16 17 16 16 15 18 18 17 16 15 14 13 12 11 11 10 10 9 9 9 8 8 7 7 6 5 4 5 5 4 4
6 6 8 1 4 4 4 1 6 4 0 0 2 1 5 7 10 15 16 15 16 16 15 17 18 16 16 15 14 13 12 11 11 10 10 9 9 8 8 7 7 7 7 6 6 5 5 6 6
7 7 7 2 2 3 6 1 6 4 4 2 1 1 6 10 12 14 14 14 15 15 14 15 17 16 16 15 14 14 13 12 11 11 11 10 9 9 8 8 8 8 8 7 7 7 7 7 8
6 7 8 5 3 3 5 2 2 6 4 2 4 3 3 13 13 13 13 13 14 14 14 14 15 15 15 15 16 14 13 13 12 11 11 10 10 10 10 10 11 9 9 8 9 9 9 9 10
6 9 8 3 1 2 6 4 1 2 4 4 5 2 5 15 16 14 14 14 13 13 12 13 14 13 13 13 14 15 14 13 12 12 12 11 11 12 11 12 7 8 9 10 10 10 10 11 13
7 11 5 3 3 5 6 6 3 6 8 7 7 5 5 16 17 17 16 16 16 15 14 12 12 12 12 10 10 10 11 12 12 10 11 11 9 7 7 5 6 9 10 11 12 11 11 13 10
6 8 4 3 4 7 7 6 4 7 9 8 7 7 11 17 18 17 16 16 15 15 14 13 11 11 11 8 8 7 7 7 11 12 10 8 7 6 7 5 8 10 11 10 9 11 9 8 6
6 5 6 7 7 7 9 8 6 7 8 3 3 4 13 18 19 18 17 15 14 15 14 13 12 10 10 9 7 7 7 6 7 9 10 9 6 6 6 5 6 6 5 6 6 6 8 8 9
6 6 5 8 10 9 9 8 7 8 6 3 3 6 13 16 17 15 14 13 13 14 14 12 10 9 9 8 7 8 8 8 8 7 8 9 8 7 7 6 6 7 7 6 7 7 7 8 9
3 7 8 9 8 6 7 7 7 5 6 4 5 8 12 13 14 13 13 12 12 13 13 12 12 11 10 8 8 8 9 8 9 8 10 11 9 8 7 8 8 8 8 8 7 8 7 7 7
6 8 9 6 5 3 6 11 5 8 7 6 6 7 7 7 9 10 11 11 11 12 12 12 12 12 12 11 12 10 10 10 9 9 10 11 12 10 9 9 9 9 8 8 8 9 8 8 8
7 9 7 4 2 2 8 13 4 9 7 6 4 3 2 3 6 7 8 9 10 11 11 11 10 12 13 12 11 9 9 10 9 9 10 12 13 12 10 10 10 9 8 8 8 8 9 8 8
8 7 4 3 2 2 7 7 6 9 6 3 3 2 0 3 4 4 6 9 9 9 9 10 11 11 11 12 11 11 9 10 9 10 10 11 13 14 12 11 10 9 9 8 8 8 8 8 9
2 4 4 4 3 5 5 4 5 8 6 5 4 3 1 2 2 3 5 7 8 9 10 10 11 11 11 10 9 9 10 10 11 11 11 13 12 14 12 11 11 10 8 7 7 8 8 8 9
1 4 4 1 3 7 6 6 3 6 5 5 5 5 3 2 3 1 2 4 6 8 10 11 12 11 10 9 9 9 10 10 10 11 13 13 13 12 10 10 9 9 8 9 9 8 10 9 8
2 3 3 3 2 7 9 9 3 1 3 5 5 5 4 2 0 1 2 3 5 6 7 9 10 10 11 9 8 8 9 9 9 8 8 10 11 11 10 10 8 8 7 8 8 8 8 8 7
3 5 7 9 10 11 11 14 9 6 3 3 4 4 5 5 4 4 4 3 4 5 6 7 7 8 10 10 9 8 8 8 8 8 7 8 9 10 7 7 6 7 7 7 7 7 8 8 7
7 4 9 12 14 13 10 13 10 8 7 4 5 6 6 6 7 7 7 7 6 6 6 7 7 8 9 10 10 12 10 11 10 7 6 7 7 8 7 6 5 7 7 6 6 6 5 7 7
8 7 10 13 14 16 14 13 8 8 8 5 5 6 6 7 7 8 8 8 8 8 7 7 7 7 8 8 9 10 10 9 6 5 4 4 3 4 4 5 5 6 5 5 4 4 5 5 6
6 9 12 11 11 13 8 9 8 3 3 3 3 4 5 7 8 9 9 9 8 8 8 8 8 8 8 8 9 9 9 8 7 6 4 4 3 3 4 4 4 5 5 5 4 4 5 3 3
6 10 8 6 7 4 3 8 4 5 3 1 1 3 5 7 9 10 11 12 11 11 10 10 10 10 10 9 9 9 10 9 9 7 7 6 5 4 5 5 5 5 5 5 5 5 4 3 3
5 8 7 8 9 11 9 9 2 2 3 3 4 5 7 9 10 11 11 11 11 12 11 11 11 11 11 10 9 9 9 7 6 7 6 6 5 5 6 6 6 7 7 6 5 5 5 3 3
6 5 7 10 12 11 7 5 5 5 6 7 7 8 9 10 11 12 11 11 11 11 12 11 11 11 11 10 9 8 7 6 5 5 5 5 5 5 6 6 6 6 6 5 5 4 4 3 3
6 7 5 7 8 11 10 10 5 5 6 6 7 9 9 10 10 10 10 11 10 10 10 9 8 9 9 8 6 4 3 3 3 4 5 5 6 5 6 6 6 5 5 4 4 4 3 3 1
5 7 7 7 8 9 11 8 4 5 8 8 9 10 10 10 10 9 10 10 9 9 7 6 4 5 6 6 4 2 1 1 0 1 3 5 5 5 5 5 5 5 5 4 4 3 4 2 2
10 11 9 10 11 13 14 13 6 6 9 11 13 12 10 9 9 9 9 9 8 8 6 3 2 4 5 5 5 4 4 2 2 1 1 3 5 5 5 5 5 5 5 4 4 4 4 4 5
Wind_Direction
193 206 223 232 239 231 53 59 47 96 119 112 153 183 280 289 315 39 102 150 145 147 146 156 161 159 155 147 141 139 139 141 144 145 147 150 152 152 149 147 145 139 128 120 117 116 114 116 122
218 218 229 241 268 48 80 62 84 51 63 122 159 202 265 140 49 93 141 147 150 150 151 160 159 163 159 153 149 146 145 145 147 149 153 155 157 156 154 151 149 146 139 131 121 121 125 130 139
231 236 262 264 318 29 53 73 93 102 122 169 170 253 326 28 106 142 146 151 154 150 153 153 162 166 163 160 157 153 151 152 153 154 158 161 164 166 163 158 157 157 155 152 147 137 139 153 175
235 232 243 263 40 49 28 84 137 137 131 149 255 187 70 42 113 145 145 156 155 154 159 154 168 168 167 165 164 161 158 159 161 163 165 167 169 171 171 169 168 169 171 176 178 169 173 188 196
243 263 257 235 63 46 32 93 172 176 76 71 258 332 87 91 122 140 151 158 161 161 163 157 172 171 171 172 172 170 167 166 168 171 174 175 176 176 176 177 180 184 187 190 187 187 191 201 211
243 251 258 221 80 58 46 126 205 219 208 206 254 286 104 120 143 150 156 164 165 165 167 156 172 177 177 179 179 179 178 179 180 181 183 185 185 185 188 192 197 201 200 198 199 206 211 218 225
271 267 269 266 126 96 33 327 228 228 240 240 229 247 123 154 156 159 160 169 170 170 167 162 174 181 184 187 188 188 188 191 194 194 193 194 198 202 204 207 214 216 216 215 212 214 223 233 236
280 270 250 226 202 101 29 323 253 241 227 149 197 243 132 163 162 165 166 173 177 175 174 172 178 180 186 189 193 196 197 199 204 208 208 206 209 215 217 221 213 226 234 233 231 228 229 236 242
251 254 246 222 219 71 16 339 173 232 172 193 214 255 54 153 164 172 175 178 182 183 183 182 181 181 191 194 183 194 201 206 212 214 215 220 225 218 206 222 195 226 242 246 246 244 241 242 237
239 248 252 18 327 338 343 322 300 212 205 213 217 183 142 157 170 181 184 184 183 187 189 188 192 183 193 196 180 200 205 202 216 224 214 218 231 246 249 153 207 242 250 253 249 250 250 243 245
241 264 299 261 290 317 311 311 278 252 232 226 228 196 170 172 180 187 191 191 187 189 192 189 195 188 198 201 198 206 212 209 213 224 226 235 243 234 237 230 208 222 232 244 232 232 244 251 256
250 254 274 284 298 298 304 306 288 260 271 342 289 207 179 184 188 192 193 193 189 193 194 194 191 194 204 210 210 216 222 218 225 212 222 227 230 246 249 247 253 246 236 241 259 258 260 266 270
240 267 267 270 276 287 286 277 285 270 289 318 273 199 192 195 193 194 195 195 194 196 197 196 196 201 207 215 228 224 229 228 225 233 220 236 240 239 242 245 251 258 257 246 240 254 268 272 268
297 284 269 267 271 261 263 263 253 293 341 301 248 225 211 204 196 191 193 196 198 201 201 197 198 205 212 216 227 235 237 228 244 230 229 226 237 241 245 242 240 248 252 259 267 266 266 265 270
273 271 256 230 247 231 261 246 233 347 326 288 258 247 236 211 198 196 196 199 202 203 203 202 202 205 210 220 226 233 240 238 236 236 232 230 235 234 238 247 245 246 249 248 250 257 260 260 259
247 246 239 150 234 198 253 247 84 351 321 296 291 277 248 204 210 203 202 203 210 208 203 206 210 209 211 219 230 238 242 248 246 243 237 230 236 236 238 245 247 248 251 253 250 256 261 261 265
218 237 247 191 116 293 263 272 15 353 346 338 345 341 285 168 202 211 213 211 215 215 213 212 217 218 217 218 222 235 242 248 251 247 244 236 234 236 236 245 251 255 254 254 259 257 263 270 270
229 259 240 254 29 304 278 296 353 2 16 30 39 40 76 164 166 202 221 227 220 219 217 220 219 221 223 222 223 232 237 238 239 242 243 245 242 242 244 246 247 251 255 257 258 265 262 268 273
309 275 277 323 350 299 286 290 335 358 14 31 40 48 52 86 116 168 228 233 224 220 220 220 225 220 221 226 229 230 235 238 240 240 242 248 254 256 252 255 254 250 250 252 255 258 262 263 271
232 260 283 243 297 296 290 279 242 24 24 21 27 36 37 28 332 254 261 250 248 241 238 236 231 231 226 228 232 239 244 247 245 248 249 253 258 257 253 250 253 253 251 250 254 256 271 277 268
259 307 316 308 301 265 268 264 214 172 151 101 74 62 53 38 19 6 342 316 289 278 270 268 269 262 252 250 246 245 245 248 244 240 240 244 253 256 243 242 248 251 251 248 250 257 258 268 269
287 317 299 292 288 287 280 285 258 184 175 138 97 78 64 48 32 21 12 4 350 331 313 299 289 278 272 264 258 256 251 250 250 247 241 235 232 234 225 203 216 243 245 238 237 238 254 259 265
321 320 288 284 280 279 267 265 272 175 204 143 95 72 51 33 16 6 358 353 349 342 334 322 310 299 291 283 275 268 259 256 254 245 235 233 222 214 206 188 185 219 235 229 232 226 249 254 269
309 288 269 254 259 261 276 280 274 188 203 146 105 56 23 6 354 347 341 338 337 335 330 324 314 303 293 283 274 262 258 250 238 219 197 184 172 169 165 169 186 215 221 212 214 220 221 250 271
303 319 299 265 245 284 52 283 291 75 137 161 2 352 341 335 329 326 327 327 326 324 324 319 311 303 296 282 270 260 252 247 234 214 190 178 173 174 169 167 191 208 209 207 211 214 226 223 246
335 317 325 313 309 313 293 269 321 129 197 233 271 294 306 309 310 309 311 313 313 314 315 312 307 302 298 284 270 261 251 243 233 216 203 188 178 168 163 173 192 200 198 199 205 213 206 209 234
301 310 333 292 283 280 272 270 265 190 224 238 261 279 293 304 308 304 306 307 307 309 311 313 311 306 300 286 271 258 248 243 227 204 194 176 158 155 163 174 188 192 192 196 209 210 209 210 233
295 317 288 291 300 296 287 280 273 204 240 263 280 295 303 308 309 309 309 309 310 309 311 317 322 319 314 300 280 265 241 238 216 187 163 148 143 151 160 170 178 178 175 183 214 197 191 207 186
239 245 267 288 290 287 291 299 3 279 289 285 298 302 300 303 310 312 310 309 305 302 306 319 337 352 355 352 344 324 336 315 198 156 150 145 143 155 163 166 169 170 169 174 196 192 177 174 121
274 271 267 275 280 268 275 285 304 281 278 283 296 301 300 298 299 302 306 305 299 296 297 299 342 28 28 31 40 43 32 11 13 27 159 159 151 156 156 159 161 164 160 164 170 156 128 100 83